Regional Weather Roundup
Issued by NWS

Home | Current Version | Previous Version | Graphics & Text | Print | Product List | Glossary On
Versions: 1 2 3 4 5 6 7 8 9 10 11 12 13 14 15 16 17 18 19 20 21 22 23 24 25 26 27 28 29 30 31 32 33 34 35 36 37 38 39 40 41 42 43 44 45 46 47 48 49 50
000
ASUS45 KBOI 091010
RWRID
WEATHER ROUNDUP FOR IDAHO
NATIONAL WEATHER SERVICE BOISE ID
400 AM MDT WED JUL 09 2014

NOTE: "FAIR" INDICATES FEW OR NO CLOUDS BELOW 12000 FEET
WITH NO SIGNIFICANT WEATHER AND/OR OBSTRUCTIONS TO VISIBILITY

IDZ012-014-091100-
SOUTHWEST IDAHO


CITY           SKY/WX    TMP DP  RH WIND       PRES   REMARKS
BOISE          PTCLDY    71  51  49 SW3       29.90R
CALDWELL       PTCLDY    73  48  40 NW6       29.91R
MOUNTAIN HOME  CLEAR     68  42  38 W5        29.91S
$$

IDZ016-017-091100-
SOUTHCENTRAL IDAHO


CITY           SKY/WX    TMP DP  RH WIND       PRES   REMARKS
BURLEY         CLEAR     63  46  54 VRB5      29.97S
JEROME         CLEAR     70  43  37 S6        29.96S
TWIN FALLS     PTCLDY    77  37  23 SW16      29.97F
$$

IDZ019>023-091100-
SOUTHEAST IDAHO


CITY           SKY/WX    TMP DP  RH WIND       PRES   REMARKS
IDAHO FALLS    CLEAR     52  48  86 VRB3      30.03R
POCATELLO      CLEAR     59  38  45 NE5       30.01R
REXBURG        CLEAR     55  49  80 CALM      30.04R
$$

IDZ006-010-011-018-031-032-091100-
CENTRAL IDAHO MOUNTAINS


CITY           SKY/WX    TMP DP  RH WIND       PRES   REMARKS
MCCALL         PTCLDY    60  49  66 CALM      30.07S
HAILEY         CLEAR     63  41  45 W12       30.06R
STANLEY          N/A     46  39  76 CALM      30.20S
SALMON         CLEAR     63  45  51 CALM      30.01S
CHALLIS        PTCLDY    67  43  41 S3        30.06S
$$

IDZ002-004-006-007-026-091100-
NORTHERN IDAHO


CITY           SKY/WX    TMP DP  RH WIND       PRES   REMARKS
LEWISTON       PTCLDY    72  49  44 SE3       29.87S
LOWELL           N/A     60  55  83 CALM      29.95S
COEUR D`ALENE  CLEAR     63  55  77 E6        29.90S
MULLAN PASS    CLEAR     62  40  44 NW5       30.14F
$$



USA.gov is the U.S. government's official web portal to all federal, state and local government web resources and services.